BRICSAT2 (USNAP1)

Last updated on Wed Aug 07 2019 04:16:54 GMT+0000 (Coordinated Universal Time)

1 44355U 19036S 19218.51624575 .00022595 00000-0 35563-3 0 9994 2 44355 28.5332 286.1971 0385842 191.9392 167.1824 14.97837845 6319
UTC large
Height (km)
Speed (km/s)
/
Latitude / Longitude
Inclination (degrees)
Orbital Period (minutes)
Azimuth
Elevation
Range (km)
Doppler Factor

Next 0 passes for location: London (51.5072 / 0.1276)

Sorry there are no passes over London.
BRICSAT2 (USNAP1)